Regional Weather Roundup
Issued by NWS

Home | Current Version | Previous Version | Graphics & Text | Print | Product List | Glossary On
Versions: 1 2 3 4 5 6 7 8 9 10 11 12 13 14 15 16 17 18 19 20 21 22 23 24 25 26 27 28 29 30 31 32 33 34 35 36 37 38 39 40 41 42 43 44 45 46 47 48 49 50
000
ASUS43 KDMX 300003
RWRIA

WEATHER ROUNDUP FOR IOWA
NATIONAL WEATHER SERVICE DES MOINES IA
700 PM CDT FRI APR 29 2016

NOTE: "FAIR" INDICATES FEW OR NO CLOUDS BELOW 12,000 FEET WITH NO
SIGNIFICANT WEATHER AND/OR OBSTRUCTIONS TO VISIBILITY.

* - THESE STATIONS ARE NOT NWS STATIONS...THUS NOT UNDER NWS
QUALITY CONTROL.  THEY ALSO DO NOT REPORT WEATHER SUCH
AS PRECIPITATION OR FOG.

IAZ001>003-012>014-020>022-031>034-043>046-300100-
   NORTHWEST IOWA

CITY           SKY/WX    TMP DP  RH WIND       PRES   REMARKS
CARROLL *      CLOUDY    46  41  81 E14       30.02F
CHEROKEE *     CLOUDY    47  42  84 E10       30.03F
DENISON *      CLOUDY    46  41  81 E15G21    29.99F
LE MARS *      CLOUDY    48  41  76 E13       30.04F
ORANGE CITY *  PTSUNNY   46  41  81 E12G17    30.03F
SHELDON *      CLOUDY    48  41  76 E12       30.04F
SIOUX CITY     CLOUDY    48  40  73 E13       30.01F
6HR MIN TEMP:  46; 6HR MAX TEMP:  49;

SPENCER        CLOUDY    49  39  68 E13       30.06F
6HR MIN TEMP:  45; 6HR MAX TEMP:  50;

STORM LAKE *   CLOUDY    45  39  81 E18       30.04F
$$

IAZ055>058-069>071-079>083-090>094-300100-
   SOUTHWEST IOWA

CITY           SKY/WX    TMP DP  RH WIND       PRES   REMARKS
ATLANTIC *     CLOUDY    48  43  81 NE10G16   29.99F
AUDUBON *      PTSUNNY   46  43  87 E12       30.01F
CLARINDA *       N/A    N/A N/A N/A MISG        N/A
COUNCIL BLFS * CLOUDY    48  43  81 E17G25    29.95F
CRESTON *      CLOUDY    48  43  81 E14       30.02R
HARLAN  *      CLOUDY    46  41  81 E16G23    30.02F
LAMONI         LGT RAIN  48  45  89 NE9       30.01R
6HR MIN TEMP:  48; 6HR MAX TEMP:  52; 6HR PCP:  0.01;

RED OAK *      CLOUDY    50  45  81 E15G22    29.95F
SHENANDOAH *   CLOUDY    50  48  93 NE14      29.94F
$$

IAZ047>049-059>061-072>074-084-300100-
   CENTRAL IOWA

CITY           SKY/WX    TMP DP  RH WIND       PRES   REMARKS
AMES           CLOUDY    48  40  73 E9        30.05F
6HR MIN TEMP:  48; 6HR MAX TEMP:  49;

ANKENY *       CLOUDY    48  43  81 MISG      30.04F
BOONE *        CLOUDY    46  41  81 E14       30.04F
CHARITON *     CLOUDY    50  43  76 E9G17     30.02S
DES MOINES     CLOUDY    50  40  68 E13       30.03F
6HR MIN TEMP:  49; 6HR MAX TEMP:  51;

GRINNELL*      CLOUDY    49  41  76 E9        30.06F
KNOXVILLE *    CLOUDY    50  43  76 E14       30.01F
MARSHALLTOWN   CLOUDY    48  41  76 E14       30.05F
6HR MIN TEMP:  46; 6HR MAX TEMP:  49;

NEWTON *       CLOUDY    48  43  81 NE14      30.04F
PELLA *        CLOUDY    49  42  78 NE7       30.04F
$$

IAZ004>006-015-016-023>025-035-036-300100-
   NORTH CENTRAL IOWA

CITY           SKY/WX    TMP DP  RH WIND       PRES   REMARKS
ALGONA *       CLOUDY    48  39  71 E9G16     30.09F
CLARION *      CLOUDY    48  41  76 E14       30.07F
ESTHERVILLE    CLOUDY    48  41  76 E10       30.08F
6HR MIN TEMP:  46; 6HR MAX TEMP:  50;

FORT DODGE *   CLOUDY    46  37  71 E12       30.05F
MASON CITY     CLOUDY    48  40  73 E9        30.11F
6HR MIN TEMP:  45; 6HR MAX TEMP:  49;

FOREST CITY *  CLOUDY    46  37  71 E9        30.10S
WEBSTER CITY * CLOUDY    48  41  76 E12       30.04F
IOWA FALLS *   CLOUDY    48  40  75 E12       30.07F
$$

IAZ007>011-017>019-026>030-037>042-050>054-066-300100-
   NORTHEAST IOWA

CITY           SKY/WX    TMP DP  RH WIND       PRES   REMARKS
CEDAR RAPIDS   CLOUDY    48  42  80 E10       30.06F
6HR MIN TEMP:  47; 6HR MAX TEMP:  51;

CHARLES CITY * CLOUDY    48  43  81 SE5       30.11F
CLINTON *      CLOUDY    48  41  76 E10       30.11S
DECORAH *      CLOUDY    48  39  71 E8        30.11R
MONTICELLO *   CLOUDY    48  41  76 E7        30.09F
OELWEIN *      CLOUDY    48  41  76 E5        30.11S
WATERLOO       CLOUDY    49  40  71 E9        30.08F
6HR MIN TEMP:  47; 6HR MAX TEMP:  49;

$$

IAZ064-065-067-068-078-300100-
   EAST CENTRAL IOWA

CITY           SKY/WX    TMP DP  RH WIND       PRES   REMARKS
DAVENPORT      CLOUDY    49  42  77 NE10      30.11R
6HR MIN TEMP:  47; 6HR MAX TEMP:  53;

IOWA CITY      CLOUDY    50  42  74 E8        30.08F
6HR MIN TEMP:  48; 6HR MAX TEMP:  53;

MT. PLEASANT * CLOUDY    54  46  76 NE12      30.06F
MUSCATINE *    CLOUDY    52  43  71 E8G15     30.08F
QUAD CITIES    CLOUDY    50  41  71 E13       30.08S
6HR MIN TEMP:  50; 6HR MAX TEMP:  53;

$$

IAZ062-063-075>077-085>089-095>099-300100-
   SOUTHEAST IOWA

CITY           SKY/WX    TMP DP  RH WIND       PRES   REMARKS
BURLINGTON     CLOUDY    51  45  79 NE14      30.04S
6HR MIN TEMP:  50; 6HR MAX TEMP:  52;

FAIRFIELD *    CLOUDY    50  43  76 E12       30.05S
FORT MADISON * CLOUDY    52  46  82 NE9       30.05F
KEOKUK *       CLOUDY    54  46  76 NE9       30.03S
OSKALOOSA *    CLOUDY    50  43  76 E12       30.05F
OTTUMWA        CLOUDY    50  42  74 E14       30.04F
6HR MIN TEMP:  48; 6HR MAX TEMP:  51;

WASHINGTON *   CLOUDY    50  46  87 E12       30.07F
$$

ABBREVIATIONS USED IN REMARKS
   TC - TEMPERATURES IN CELSIUS
  WCI - WIND CHILL INDEX
   HX - HEAT INDEX
  VSB - VISIBILITY
$$





USA.gov is the U.S. government's official web portal to all federal, state and local government web resources and services.